| time (UTC) | temp C | wind direction | speed KPH | gust KPH | rain 1hr cm | rain 24hr cm | rain mn cm | humidity % | barometer mb |
| 20260506051010 | 15 | 210 | 1.6 | 6.4 | 0.00 | 0.05 | 0.03 | 80 | 1015.8 |
| 20260506050512 | 15 | 91 | 1.6 | 6.4 | 0.00 | 0.05 | 0.03 | 79 | 1015.6 |
| 20260506045015 | 15 | 80 | 0.0 | 6.4 | 0.00 | 0.05 | 0.03 | 79 | 1015.6 |
| 20260506044507 | 15 | 88 | 0.0 | 6.4 | 0.00 | 0.05 | 0.03 | 79 | 1015.6 |
| 20260506043005 | 15 | 92 | 0.0 | 8.0 | 0.00 | 0.08 | 0.03 | 79 | 1015.8 |
| 20260506042001 | 15 | 93 | 0.0 | 4.8 | 0.00 | 0.08 | 0.03 | 80 | 1015.6 |
| 20260506040458 | 15 | 117 | 0.0 | 0.0 | 0.00 | 0.10 | 0.03 | 79 | 1015.5 |
| 20260506035957 | 15 | 117 | 0.0 | 3.2 | 0.00 | 0.13 | 0.03 | 78 | 1015.4 |
| 20260506035458 | 15 | 126 | 1.6 | 6.4 | 0.00 | 0.13 | 0.03 | 77 | 1015.4 |
| 20260506034457 | 15 | 77 | 0.0 | 6.4 | 0.00 | 0.15 | 0.03 | 79 | 1015.3 |
| 20260506033954 | 15 | 76 | 0.0 | 9.7 | 0.00 | 0.15 | 0.03 | 78 | 1015.6 |
| 20260506033452 | 15 | 94 | 0.0 | 9.7 | 0.00 | 0.15 | 0.03 | 79 | 1015.6 |
| 20260506032951 | 15 | 89 | 0.0 | 4.8 | 0.00 | 0.15 | 0.03 | 79 | 1015.6 |
| 20260506032453 | 15 | 79 | 1.6 | 6.4 | 0.00 | 0.15 | 0.03 | 80 | 1015.6 |
| 20260506031434 | 15 | 58 | 1.6 | 9.7 | 0.03 | 0.18 | 0.03 | 80 | 1015.5 |
| 20260506030930 | 15 | 101 | 1.6 | 9.7 | 0.03 | 0.18 | 0.03 | 81 | 1015.7 |
| 20260506025931 | 15 | 83 | 0.0 | 8.0 | 0.03 | 0.18 | 0.03 | 82 | 1015.7 |
| 20260506025433 | 15 | 73 | 0.0 | 3.2 | 0.03 | 0.18 | 0.03 | 83 | 1015.6 |
| 20260506024931 | 15 | 91 | 0.0 | 6.4 | 0.03 | 0.20 | 0.03 | 82 | 1015.7 |
| 20260506024433 | 16 | 92 | 0.0 | 6.4 | 0.03 | 0.20 | 0.03 | 82 | 1015.7 |
| 20260506023932 | 16 | 53 | 0.0 | 0.0 | 0.03 | 0.20 | 0.03 | 82 | 1015.7 |
| 20260506023433 | 16 | 53 | 0.0 | 0.0 | 0.03 | 0.20 | 0.03 | 81 | 1016.0 |
| 20260506022433 | 16 | 53 | 0.0 | 6.4 | 0.03 | 0.20 | 0.03 | 79 | 1016.1 |
| 20260506021931 | 16 | 108 | 0.0 | 6.4 | 0.00 | 0.18 | 0.00 | 80 | 1016.0 |
| 20260506021432 | 16 | 88 | 1.6 | 6.4 | 0.00 | 0.18 | 0.00 | 80 | 1016.1 |
| 20260506020433 | 16 | 121 | 0.0 | 0.0 | 0.00 | 0.18 | 0.00 | 80 | 1016.3 |
| 20260506015430 | 16 | 122 | 0.0 | 0.0 | 0.00 | 0.18 | 0.00 | 81 | 1016.4 |
| 20260506014930 | 16 | 122 | 0.0 | 0.0 | 0.00 | 0.18 | 0.00 | 81 | 1016.3 |
| 20260506014430 | 16 | 124 | 0.0 | 1.6 | 0.00 | 0.18 | 0.00 | 81 | 1016.4 |
| 20260506013930 | 16 | 124 | 0.0 | 1.6 | 0.00 | 0.18 | 0.00 | 81 | 1016.4 |
| 20260506013430 | 16 | 72 | 0.0 | 3.2 | 0.00 | 0.18 | 0.00 | 82 | 1016.3 |
| 20260506012932 | 16 | 72 | 0.0 | 3.2 | 0.00 | 0.18 | 0.00 | 82 | 1016.2 |
| 20260506012430 | 16 | 72 | 0.0 | 3.2 | 0.00 | 0.18 | 0.00 | 82 | 1016.2 |
| 20260506011928 | 16 | 52 | 0.0 | 3.2 | 0.00 | 0.18 | 0.00 | 82 | 1016.2 |
| 20260506011430 | 16 | 105 | 0.0 | 1.6 | 0.00 | 0.18 | 0.00 | 83 | 1016.2 |
| 20260506010927 | 16 | 110 | 0.0 | 4.8 | 0.00 | 0.18 | 0.00 | 83 | 1016.3 |
| 20260506010427 | 16 | 110 | 0.0 | 4.8 | 0.00 | 0.18 | 0.00 | 82 | 1016.4 |
| 20260506005923 | 16 | 90 | 0.0 | 3.2 | 0.00 | 0.18 | 0.00 | 83 | 1016.3 |
| 20260506005425 | 16 | 91 | 0.0 | 4.8 | 0.00 | 0.18 | 0.00 | 83 | 1016.3 |
| 20260506004923 | 16 | 90 | 1.6 | 8.0 | 0.00 | 0.18 | 0.00 | 83 | 1016.3 |
| 20260506004420 | 16 | 86 | 1.6 | 9.7 | 0.00 | 0.18 | 0.00 | 83 | 1016.2 |
| 20260506003913 | 16 | 89 | 1.6 | 9.7 | 0.00 | 0.18 | 0.00 | 83 | 1016.2 |
| 20260506003408 | 16 | 79 | 0.0 | 8.0 | 0.00 | 0.18 | 0.00 | 83 | 1016.3 |
| 20260506002902 | 16 | 88 | 0.0 | 4.8 | 0.00 | 0.18 | 0.00 | 83 | 1016.4 |
| 20260506002356 | 16 | 90 | 0.0 | 4.8 | 0.00 | 0.18 | 0.00 | 84 | 1016.4 |
| 20260506001852 | 16 | 91 | 0.0 | 4.8 | 0.00 | 0.18 | 0.00 | 84 | 1016.4 |
| 20260506001345 | 16 | 92 | 0.0 | 6.4 | 0.00 | 0.18 | 0.00 | 84 | 1016.5 |
| 20260506000335 | 16 | 112 | 0.0 | 0.0 | 0.00 | 0.18 | 0.00 | 84 | 1016.6 |
| 20260505235828 | 16 | 112 | 0.0 | 0.0 | 0.00 | 0.18 | 0.00 | 84 | 1016.6 |
| 20260505235320 | 16 | 111 | 0.0 | 4.8 | 0.00 | 0.18 | 0.00 | 84 | 1016.7 |
| 20260505234328 | 16 | 124 | 0.0 | 1.6 | 0.00 | 0.18 | 0.00 | 83 | 1016.8 |
| 20260505233815 | 16 | 126 | 0.0 | 6.4 | 0.00 | 0.18 | 0.00 | 83 | 1016.8 |
| 20260505233311 | 16 | 134 | 0.0 | 6.4 | 0.00 | 0.18 | 0.00 | 83 | 1016.8 |
| 20260505232808 | 16 | 117 | 0.0 | 4.8 | 0.00 | 0.18 | 0.00 | 83 | 1016.8 |
| 20260505232308 | 16 | 112 | 0.0 | 4.8 | 0.00 | 0.18 | 0.00 | 83 | 1016.8 |
| 20260505231306 | 16 | 102 | 0.0 | 3.2 | 0.00 | 0.18 | 0.00 | 83 | 1016.9 |
| 20260505230804 | 16 | 103 | 0.0 | 6.4 | 0.00 | 0.18 | 0.00 | 83 | 1017.0 |
| 20260505230304 | 16 | 103 | 1.6 | 6.4 | 0.00 | 0.18 | 0.00 | 82 | 1017.1 |
| 20260505225805 | 16 | 172 | 0.0 | 6.4 | 0.00 | 0.18 | 0.00 | 82 | 1017.1 |
| 20260505225318 | 16 | 131 | 0.0 | 1.6 | 0.00 | 0.18 | 0.00 | 83 | 1017.1 |
| 20260505224810 | 16 | 138 | 0.0 | 3.2 | 0.00 | 0.18 | 0.00 | 83 | 1017.1 |
| 20260505224302 | 16 | 182 | 0.0 | 4.8 | 0.00 | 0.18 | 0.00 | 82 | 1017.2 |
| 20260505223800 | 16 | 127 | 0.0 | 4.8 | 0.00 | 0.18 | 0.00 | 82 | 1017.2 |
| 20260505223301 | 16 | 153 | 0.0 | 4.8 | 0.00 | 0.18 | 0.00 | 82 | 1017.3 |
| 20260505222259 | 16 | 142 | 0.0 | 1.6 | 0.00 | 0.18 | 0.00 | 82 | 1017.3 |
| 20260505221759 | 16 | 142 | 0.0 | 6.4 | 0.00 | 0.18 | 0.00 | 82 | 1017.3 |
| 20260505221256 | 16 | 139 | 0.0 | 6.4 | 0.00 | 0.18 | 0.00 | 82 | 1017.3 |
| 20260505220757 | 16 | 192 | 0.0 | 3.2 | 0.00 | 0.18 | 0.00 | 82 | 1017.3 |
| 20260505220258 | 17 | 192 | 0.0 | 6.4 | 0.00 | 0.18 | 0.00 | 82 | 1017.4 |
| 20260505215253 | 17 | 104 | 0.0 | 0.0 | 0.00 | 0.18 | 0.18 | 81 | 1017.5 |
| 20260505214753 | 17 | 104 | 0.0 | 1.6 | 0.00 | 0.18 | 0.18 | 81 | 1017.5 |
| 20260505214254 | 17 | 104 | 0.0 | 1.6 | 0.00 | 0.18 | 0.18 | 82 | 1017.7 |
| 20260505213753 | 17 | 27 | 0.0 | 0.0 | 0.00 | 0.18 | 0.18 | 82 | 1017.7 |
| 20260505213252 | 17 | 26 | 0.0 | 0.0 | 0.00 | 0.18 | 0.18 | 81 | 1017.7 |
| 20260505212752 | 17 | 26 | 0.0 | 0.0 | 0.00 | 0.18 | 0.18 | 82 | 1017.7 |
| 20260505211752 | 17 | 26 | 0.0 | 0.0 | 0.00 | 0.18 | 0.18 | 81 | 1017.7 |
| 20260505211253 | 17 | 26 | 0.0 | 0.0 | 0.00 | 0.18 | 0.18 | 81 | 1017.7 |
| 20260505210752 | 17 | 26 | 0.0 | 0.0 | 0.00 | 0.18 | 0.18 | 81 | 1017.9 |
| 20260505210255 | 17 | 26 | 0.0 | 0.0 | 0.00 | 0.18 | 0.18 | 81 | 1017.9 |
| 20260505205753 | 17 | 26 | 0.0 | 0.0 | 0.00 | 0.18 | 0.18 | 81 | 1017.9 |
| 20260505204753 | 17 | 29 | 0.0 | 0.0 | 0.00 | 0.18 | 0.18 | 81 | 1017.7 |
| 20260505204254 | 17 | 29 | 0.0 | 0.0 | 0.00 | 0.18 | 0.18 | 81 | 1017.8 |
| 20260505203755 | 17 | 29 | 0.0 | 0.0 | 0.00 | 0.18 | 0.18 | 81 | 1017.8 |
| 20260505203251 | 17 | 29 | 0.0 | 0.0 | 0.00 | 0.18 | 0.18 | 81 | 1017.9 |
| 20260505202751 | 17 | 29 | 0.0 | 0.0 | 0.00 | 0.18 | 0.18 | 81 | 1017.8 |
| 20260505202251 | 17 | 29 | 0.0 | 0.0 | 0.00 | 0.18 | 0.18 | 81 | 1017.8 |
| 20260505201752 | 17 | 29 | 0.0 | 0.0 | 0.00 | 0.18 | 0.18 | 81 | 1017.8 |
| 20260505200247 | 17 | 15 | 0.0 | 0.0 | 0.00 | 0.18 | 0.18 | 82 | 1017.8 |
| 20260505195744 | 17 | 1 | 0.0 | 1.6 | 0.00 | 0.18 | 0.18 | 82 | 1017.9 |
| 20260505195245 | 17 | 1 | 0.0 | 1.6 | 0.00 | 0.18 | 0.18 | 82 | 1017.9 |
| 20260505194743 | 17 | 97 | 0.0 | 0.0 | 0.00 | 0.18 | 0.18 | 82 | 1017.8 |
| 20260505194244 | 17 | 97 | 0.0 | 0.0 | 0.00 | 0.18 | 0.18 | 82 | 1017.7 |
| 20260505193739 | 17 | 171 | 0.0 | 0.0 | 0.00 | 0.18 | 0.18 | 82 | 1017.8 |
| 20260505192736 | 16 | 203 | 3.2 | 11.3 | 0.00 | 0.18 | 0.18 | 82 | 1017.5 |
| 20260505192233 | 16 | 127 | 1.6 | 11.3 | 0.00 | 0.18 | 0.18 | 82 | 1017.4 |
| 20260505191733 | 16 | 131 | 1.6 | 6.4 | 0.00 | 0.18 | 0.18 | 82 | 1017.3 |
| 20260505191228 | 17 | 247 | 0.0 | 6.4 | 0.00 | 0.18 | 0.18 | 82 | 1017.4 |
| 20260505190720 | 17 | 177 | 1.6 | 8.0 | 0.00 | 0.18 | 0.18 | 82 | 1017.3 |
| 20260505190213 | 17 | 192 | 1.6 | 8.0 | 0.00 | 0.18 | 0.18 | 82 | 1017.3 |
| 20260505185709 | 17 | 129 | 0.0 | 4.8 | 0.00 | 0.18 | 0.18 | 83 | 1017.4 |
| 20260505185205 | 17 | 93 | 0.0 | 0.0 | 0.00 | 0.18 | 0.18 | 83 | 1017.3 |
| 20260505184658 | 17 | 92 | 0.0 | 3.2 | 0.00 | 0.18 | 0.18 | 82 | 1017.3 |
| 20260505184150 | 17 | 95 | 0.0 | 3.2 | 0.00 | 0.18 | 0.18 | 82 | 1017.3 |
| 20260505183644 | 17 | 84 | 0.0 | 4.8 | 0.00 | 0.18 | 0.18 | 82 | 1017.1 |
| 20260505183140 | 17 | 158 | 0.0 | 4.8 | 0.00 | 0.18 | 0.18 | 82 | 1017.1 |
| 20260505182631 | 17 | 112 | 0.0 | 8.0 | 0.00 | 0.18 | 0.18 | 82 | 1017.2 |
| 20260505181621 | 17 | 103 | 0.0 | 17.7 | 0.00 | 0.18 | 0.18 | 82 | 1017.1 |
| 20260505181114 | 17 | 176 | 0.0 | 17.7 | 0.00 | 0.18 | 0.18 | 82 | 1017.0 |
| 20260505180609 | 17 | 176 | 0.0 | 0.0 | 0.00 | 0.18 | 0.18 | 82 | 1016.9 |
| 20260505180109 | 17 | 193 | 0.0 | 0.0 | 0.00 | 0.18 | 0.18 | 82 | 1017.1 |
| 20260505175049 | 17 | 177 | 1.6 | 14.5 | 0.00 | 0.18 | 0.18 | 81 | 1017.0 |
| 20260505174546 | 17 | 162 | 1.6 | 11.3 | 0.00 | 0.18 | 0.18 | 81 | 1016.9 |
| 20260505173532 | 17 | 110 | 1.6 | 14.5 | 0.00 | 0.18 | 0.18 | 80 | 1017.1 |
| 20260505173028 | 17 | 153 | 1.6 | 14.5 | 0.00 | 0.18 | 0.18 | 80 | 1017.2 |
| 20260505172529 | 17 | 284 | 1.6 | 6.4 | 0.00 | 0.18 | 0.18 | 80 | 1017.1 |
| 20260505172026 | 17 | 122 | 1.6 | 11.3 | 0.00 | 0.18 | 0.18 | 80 | 1017.1 |
| 20260505171524 | 17 | 173 | 1.6 | 11.3 | 0.00 | 0.18 | 0.18 | 80 | 1016.9 |
| 20260505171026 | 17 | 122 | 0.0 | 8.0 | 0.00 | 0.18 | 0.18 | 80 | 1017.1 |
| 20260505170524 | 17 | 208 | 1.6 | 12.9 | 0.00 | 0.18 | 0.18 | 80 | 1017.1 |
| 20260505170027 | 17 | 135 | 0.0 | 12.9 | 0.00 | 0.18 | 0.18 | 80 | 1017.1 |
| 20260505165522 | 17 | 109 | 0.0 | 3.2 | 0.00 | 0.18 | 0.18 | 80 | 1017.0 |
| 20260505165023 | 17 | 78 | 0.0 | 3.2 | 0.00 | 0.18 | 0.18 | 80 | 1017.0 |
| 20260505164021 | 17 | 266 | 0.0 | 6.4 | 0.00 | 0.18 | 0.18 | 80 | 1017.0 |
| 20260505163521 | 17 | 91 | 0.0 | 6.4 | 0.00 | 0.18 | 0.18 | 80 | 1016.9 |
| 20260505163021 | 17 | 108 | 0.0 | 3.2 | 0.00 | 0.18 | 0.18 | 80 | 1016.9 |
| 20260505162522 | 17 | 106 | 0.0 | 8.0 | 0.00 | 0.18 | 0.18 | 80 | 1017.1 |
| 20260505162019 | 17 | 141 | 1.6 | 17.7 | 0.00 | 0.18 | 0.18 | 79 | 1017.1 |
| 20260505161516 | 17 | 179 | 3.2 | 17.7 | 0.00 | 0.18 | 0.18 | 79 | 1017.2 |
| 20260505161020 | 18 | 285 | 3.2 | 19.3 | 0.00 | 0.18 | 0.18 | 79 | 1017.3 |
| 20260505160516 | 18 | 160 | 3.2 | 19.3 | 0.00 | 0.18 | 0.18 | 79 | 1017.2 |
| 20260505153014 | 18 | 262 | 1.6 | 11.3 | 0.03 | 0.18 | 0.18 | 78 | 1017.4 |
| 20260505152512 | 18 | 260 | 1.6 | 8.0 | 0.03 | 0.18 | 0.18 | 79 | 1017.4 |
| 20260505152013 | 18 | 188 | 1.6 | 11.3 | 0.03 | 0.18 | 0.18 | 79 | 1017.4 |
| 20260505151510 | 18 | 217 | 1.6 | 11.3 | 0.03 | 0.18 | 0.18 | 79 | 1017.4 |
| 20260505151008 | 18 | 305 | 3.2 | 16.1 | 0.03 | 0.18 | 0.18 | 79 | 1017.3 |
| 20260505140458 | 17 | 144 | 0.0 | 3.2 | 0.00 | 0.15 | 0.15 | 79 | 1017.5 |
| 20260505124948 | 17 | 165 | 0.0 | 11.3 | 0.00 | 0.15 | 0.15 | 78 | 1018.0 |
| 20260505123947 | 17 | 286 | 0.0 | 3.2 | 0.00 | 0.15 | 0.15 | 77 | 1018.2 |
| 20260505123446 | 17 | 116 | 0.0 | 9.7 | 0.00 | 0.15 | 0.15 | 78 | 1018.2 |
| 20260505122956 | 17 | 116 | 1.6 | 9.7 | 0.00 | 0.15 | 0.15 | 77 | 1018.2 |
| 20260505122442 | 17 | 208 | 1.6 | 16.1 | 0.00 | 0.15 | 0.15 | 77 | 1018.3 |
| 20260505121943 | 17 | 145 | 1.6 | 16.1 | 0.00 | 0.15 | 0.15 | 77 | 1018.2 |
| 20260505121443 | 17 | 44 | 0.0 | 6.4 | 0.00 | 0.15 | 0.15 | 77 | 1018.3 |
| 20260505120942 | 17 | 90 | 0.0 | 4.8 | 0.00 | 0.15 | 0.15 | 78 | 1018.2 |
| 20260505120443 | 17 | 93 | 0.0 | 4.8 | 0.00 | 0.15 | 0.15 | 77 | 1018.2 |
| 20260505115940 | 17 | 284 | 0.0 | 4.8 | 0.00 | 0.15 | 0.15 | 78 | 1018.3 |
| 20260505115440 | 16 | 342 | 1.6 | 4.8 | 0.00 | 0.15 | 0.15 | 78 | 1018.3 |
| 20260505113940 | 16 | 351 | 1.6 | 11.3 | 0.00 | 0.15 | 0.15 | 77 | 1018.5 |
| 20260505112941 | 16 | 336 | 1.6 | 9.7 | 0.00 | 0.15 | 0.15 | 77 | 1018.5 |
| 20260505112438 | 16 | 262 | 0.0 | 4.8 | 0.00 | 0.15 | 0.15 | 78 | 1018.5 |
| 20260505111938 | 16 | 259 | 1.6 | 19.3 | 0.00 | 0.15 | 0.15 | 78 | 1018.5 |
| 20260505111439 | 16 | 105 | 1.6 | 19.3 | 0.00 | 0.15 | 0.15 | 77 | 1018.6 |
| 20260505110938 | 16 | 1 | 1.6 | 9.7 | 0.00 | 0.15 | 0.15 | 78 | 1018.6 |
| 20260505110438 | 16 | 239 | 1.6 | 11.3 | 0.00 | 0.15 | 0.15 | 79 | 1018.5 |
| 20260505101928 | 16 | 255 | 0.0 | 4.8 | 0.00 | 0.15 | 0.15 | 81 | 1018.7 |
| 20260505101426 | 16 | 255 | 1.6 | 8.0 | 0.00 | 0.15 | 0.15 | 81 | 1018.7 |
| 20260505100926 | 15 | 269 | 1.6 | 9.7 | 0.00 | 0.15 | 0.15 | 80 | 1018.7 |
| 20260505100438 | 15 | 72 | 0.0 | 9.7 | 0.00 | 0.15 | 0.15 | 82 | 1018.6 |
| 20260505095422 | 15 | 20 | 0.0 | 1.6 | 0.00 | 0.15 | 0.15 | 84 | 1018.6 |
| 20260505094922 | 15 | 11 | 0.0 | 6.4 | 0.00 | 0.15 | 0.15 | 84 | 1018.7 |
| 20260505094420 | 15 | 100 | 1.6 | 9.7 | 0.00 | 0.15 | 0.15 | 84 | 1018.7 |
| 20260505093919 | 15 | 358 | 3.2 | 9.7 | 0.00 | 0.15 | 0.15 | 84 | 1018.7 |
| 20260505093417 | 15 | 75 | 3.2 | 8.0 | 0.00 | 0.15 | 0.15 | 84 | 1018.9 |
| 20260505091353 | 15 | 91 | 0.0 | 3.2 | 0.00 | 0.15 | 0.15 | 85 | 1018.6 |
| 20260505090848 | 15 | 91 | 0.0 | 8.0 | 0.00 | 0.15 | 0.15 | 85 | 1018.5 |
| 20260505090343 | 15 | 93 | 0.0 | 8.0 | 0.00 | 0.15 | 0.15 | 85 | 1018.6 |
| 20260505085838 | 15 | 84 | 0.0 | 9.7 | 0.00 | 0.15 | 0.15 | 85 | 1018.6 |
| 20260505085331 | 15 | 84 | 1.6 | 9.7 | 0.00 | 0.15 | 0.15 | 86 | 1018.6 |
| 20260505084823 | 15 | 112 | 3.2 | 9.7 | 0.00 | 0.15 | 0.15 | 85 | 1018.5 |
| 20260505084318 | 15 | 77 | 1.6 | 9.7 | 0.00 | 0.15 | 0.15 | 86 | 1018.5 |
| 20260505083812 | 15 | 105 | 1.6 | 6.4 | 0.00 | 0.15 | 0.15 | 86 | 1018.5 |
| 20260505082801 | 14 | 203 | 0.0 | 8.0 | 0.00 | 0.15 | 0.15 | 86 | 1018.4 |
| 20260505082251 | 14 | 89 | 1.6 | 11.3 | 0.00 | 0.15 | 0.15 | 87 | 1018.4 |
| 20260505080733 | 14 | 84 | 1.6 | 6.4 | 0.00 | 0.15 | 0.15 | 87 | 1018.3 |
| 20260505080227 | 14 | 94 | 1.6 | 6.4 | 0.00 | 0.15 | 0.15 | 87 | 1018.5 |
| 20260505075721 | 14 | 94 | 1.6 | 11.3 | 0.00 | 0.15 | 0.15 | 86 | 1018.3 |
| 20260505075216 | 14 | 84 | 1.6 | 11.3 | 0.00 | 0.15 | 0.15 | 86 | 1018.5 |
| 20260505074709 | 14 | 88 | 3.2 | 9.7 | 0.00 | 0.15 | 0.15 | 87 | 1018.5 |
| 20260505074206 | 14 | 72 | 1.6 | 8.0 | 0.00 | 0.15 | 0.15 | 87 | 1018.3 |
| 20260505073659 | 14 | 62 | 0.0 | 6.4 | 0.00 | 0.15 | 0.15 | 87 | 1018.4 |
| 20260505072139 | 14 | 273 | 1.6 | 8.0 | 0.00 | 0.15 | 0.15 | 87 | 1018.6 |
| 20260505071635 | 14 | 97 | 0.0 | 8.0 | 0.00 | 0.15 | 0.15 | 87 | 1018.5 |
| 20260505071127 | 14 | 82 | 0.0 | 0.0 | 0.00 | 0.15 | 0.15 | 88 | 1018.6 |
| 20260505070621 | 13 | 82 | 1.6 | 8.0 | 0.00 | 0.15 | 0.15 | 88 | 1018.5 |
| 20260505070118 | 13 | 82 | 1.6 | 8.0 | 0.00 | 0.15 | 0.15 | 88 | 1018.6 |
| 20260505065612 | 13 | 82 | 0.0 | 6.4 | 0.00 | 0.15 | 0.15 | 88 | 1018.4 |
| 20260505065109 | 13 | 79 | 0.0 | 4.8 | 0.00 | 0.15 | 0.15 | 88 | 1018.6 |
| 20260505064609 | 13 | 86 | 0.0 | 3.2 | 0.00 | 0.15 | 0.15 | 88 | 1018.5 |
| 20260505063607 | 13 | 112 | 0.0 | 1.6 | 0.03 | 0.15 | 0.15 | 88 | 1018.4 |
| 20260505063107 | 13 | 113 | 0.0 | 1.6 | 0.03 | 0.15 | 0.15 | 88 | 1018.4 |
| 20260505062103 | 13 | 28 | 0.0 | 6.4 | 0.03 | 0.15 | 0.15 | 88 | 1018.5 |
| 20260505061603 | 13 | 13 | 0.0 | 8.0 | 0.03 | 0.15 | 0.15 | 88 | 1018.4 |
| 20260505061102 | 13 | 55 | 0.0 | 8.0 | 0.03 | 0.15 | 0.15 | 89 | 1018.3 |
| 20260505060111 | 13 | 67 | 0.0 | 8.0 | 0.03 | 0.15 | 0.15 | 89 | 1018.2 |
| 20260505055555 | 13 | 64 | 0.0 | 8.0 | 0.03 | 0.15 | 0.15 | 89 | 1018.3 |
| 20260505055053 | 13 | 91 | 0.0 | 0.0 | 0.03 | 0.15 | 0.15 | 90 | 1018.2 |